sat.trackr.live / text

‹ back to catalog

PCSAT (NO-44)

NORAD 26931 · 2001-043C

PAYLOAD ACTIVE UNKNOWN

§ Identity

Operator
Country
US
Launch date
2001-09-30
Launch site
KODAK
Launch vehicle
Mass (kg)
RCS (m²)
0.18

Purposes: comms

External: N2YO · Heavens-Above · Gunter

§ Orbital elements

Epoch: 2026-05-25T04:19:21.523008Z

Period
100.56 min
Inclination
67.0508°
Eccentricity
0.0006182
Mean motion
14.31945949 rev/d
Perigee alt
780.8 km
Apogee alt
789.7 km
Semi-major
7,163.4 km
B*
7.3257e-5
RAAN
303.7778°
Arg perigee
263.8454°
Mean anomaly
96.1944°
Rev number
28,715

§ Raw data

PCSAT (NO-44)1 26931U 01043C   26145.18011022  .00000113  00000+0  73257-4 0  99942 26931  67.0508 303.7778 0006182 263.8454  96.1944 14.31945949287158

JSON: /api/v1/satellites/26931 · /tle

For live sub-satellite position, see the globe view (requires WebGL).

§ Visibility from observer

Set your observer location to see the next 7 days of passes ≥ 10°. The values pass through the URL so the page stays shareable.

No JS? Fill the form by hand. The geolocation button needs JavaScript.

§ Radio — SatNOGS DB

ModeDescriptionDownlinkUplink
AFSK Mode V - R2 Backup APRS 1K2 144.390 MHz
AFSK Mode V/V APRS AFSK 145.825 MHz 145.825 MHz
AFSK PE0SAT - 1k2 AFSK APRS 145.827 MHz

3 transmitters · refreshed weekly from db.satnogs.org